Location: Red Deer
(52.2681°N, 113.8112°W)
Time: 16:12:01
(UTC-06:00)

Envisat - Pass Details

Date: 22 April 2024
Orbit: 762 x 764 km, 98.3° (Epoch: 27 May)

Event Time Altitude Azimuth Distance (km) Brightness Sun altitude
Rises 03:21:56 0° 30° (NNE) 3,240 7.8 -21.2°
Reaches altitude 10° 03:25:52 10° 61° (ENE) 2,306 6.3 -20.9°
Maximum altitude 03:27:49 12° 84° (E) 2,156 5.8 -20.8°
Drops below altitude 10° 03:29:47 10° 107° (ESE) 2,299 5.6 -20.6°
Sets 03:33:40 0° 137° (SE) 3,217 6.1 -20.3°
